Hourly Data Report for October 02, 2003

SHERBROOKE A
QUEBEC

45°26'00.000" N
71°41'00.000" W
241.40 m
7028124
71610
YSC

Download Data

Hourly Data (October 2003)
Hourly Data Report for October 2, 2003
TIME
LST
Temp Definition
°C
Dew Point Definition
°C
Rel Hum Definition
%
Precip. Amount Definition
mm

Wind Dir Definition
10's deg

Wind Spd Definition
km/h
Visibility Definition
km
Stn Press Definition
kPa
Hmdx Definition


Wind Chill Definition


Weather Definition


00:00 2.7 2.2 97   9 6 5.6 98.82      
01:00 3.6 3.0 96   7 4 8.0 98.77      
02:00 2.5 1.9 96   4 4 6.4 98.71      
03:00 2.8 2.1 95   7 4 15.0 98.67      
04:00 0.8 -0.1 94   9 4 8.0 98.66      
05:00 1.8 1.1 95   7 9 6.4 98.59     Rain
06:00 2.0 1.4 96     0 8.0 98.58     Rain
07:00 3.0 2.4 96     0 24.1 98.57     Mostly Cloudy
08:00 4.2 3.4 95   8 6 19.3 98.52     Rain Showers
09:00 5.5 4.5 93   12 7 24.1 98.48     Rain Showers
10:00 8.0 6.8 92   31 4 24.1 98.40     Mostly Cloudy
11:00 4.6 3.1 90   26 17 8.0 98.46     Rain Showers, Fog
12:00 5.8 4.9 94   19 7 24.1 98.43     Mostly Cloudy
13:00 7.2 5.5 89   21 6 24.1 98.32     Mostly Cloudy
14:00 6.8 3.2 78   27 22 19.3 98.31     Rain Showers,Ice Pellet Showers
15:00 5.8 4.4 91   20 4 19.3 98.27     Cloudy
16:00 5.1 2.5 83   23 9 24.1 98.27     Rain Showers
17:00 4.8 3.1 89   29 11 15.0 98.30     Rain
18:00 3.9 2.8 93   21 7 15.0 98.32     Rain
19:00 2.0 0.9 92   28 19 4.8 98.38     Moderate Rain
20:00 1.9 1.0 94   19 6 15.0 98.29     Drizzle
21:00 2.3 1.4 94     0 15.0 98.29      
22:00 2.9 2.1 94   25 9 15.0 98.28      
23:00 3.5 2.6 94   25 17 6.4 98.29     Rain

Notes on Data Quality.

Legend

  • E = Estimated
  • M = Missing
  • NA = Not Available*
  • [empty] = Indicates an unobserved value
Date modified: